Location: Unspecified
(0.0000°N, 0.0000°E)
Time: 11:04:49
(UTC+00:00)

COSMOS 2471 (GLONASS) - Pass Details

Date: 15 December 2022
Orbit: 19085 x 19180 km, 65.9° (Epoch: 04 February)

Event Time Altitude Azimuth Distance (km) Brightness Sun altitude
Rises 21:15:19 0° 225° (SW) 24,695 ? -44.8°
Reaches altitude 10° 01:46:33 10° 356° (N) 23,643 ? -54.3°
Maximum altitude 04:29:11 55° 94° (E) 20,017 ? -19.6°
Drops below altitude 10° 06:31:24 10° 158° (SSE) 23,572 ? 8.3°
Sets 06:53:56 0° 158° (SSE) 24,663 ? 13.5°
